Regional Weather Roundup
Issued by NWS Sterling, VA

Home | Current Version | Previous Version | Graphics & Text | Print | Product List | Glossary On
Versions: 1 2 3 4 5 6 7 8 9 10 11 12 13 14 15 16 17 18 19 20 21 22 23 24 25 26 27 28 29 30 31 32 33 34 35 36 37 38 39 40 41 42 43 44 45 46 47 48 49 50
987
ASUS41 KLWX 181911
RWRLWX

REGIONAL WEATHER ROUNDUP
NATIONAL WEATHER SERVICE BALTIMORE MD/WASHINGTON DC
300 PM EDT FRI AUG 18 2017

Note: "FAIR" indicates few or no clouds below 12,000 feet
with no significant weather and/or obstructions to visibility.
 TC=TEMPERATURE CELSIUS

 * =Non NWS site. Station does not report precipitation (e.g. rain,
    snow, etc.), thunder, or fog.

DCZ001-MDZ009-015-VAZ040>042-051-053>054-182000-
WASHINGTON METRO

CITY           SKY/WX    TMP DP  RH WIND       PRES   REMARKS
WASHINGTON NAT MOSUNNY   90  80  72 S13       29.78F HX 107
DULLES         PTSUNNY   92  75  57 S15       29.78F HX 103
ANDREWS AFB    SUNNY     89  76  64 S10       29.79F HX 100
FT BELVOIR     SUNNY     91  76  61 S10       29.78F HX 103
QUANTICO       PTSUNNY   89  81  77 S13       29.79F HX 108
COLLEGE PARK*  MOSUNNY   92  74  56 S5        29.78F HX 102
LEESBURG*      PTSUNNY   91  77  62 SW7       29.80F HX 105
MANASSAS*      PTSUNNY   93  76  57 S8        29.79F HX 105
GAITHERSBURG*  PTSUNNY   93  76  57 SW9       29.80F HX 105

$$

MDZ006>007-011-014-182000-
BALTIMORE METRO

CITY           SKY/WX    TMP DP  RH WIND       PRES   REMARKS
BWI AIRPORT    PTSUNNY   91  77  63 S7        29.77F HX 104
MD SCIENCE CTR   N/A     89  79  72 MISG      29.77F HX 104
MARTIN STATE     N/A     88  82  84 SE13      29.80F HX 108
ANNAPOLIS      SUNNY     87  82  85 SE14      29.78F HX 106
FORT MEADE*      N/A     88  77  70 S7        29.81F HX 100

$$

MDZ012-015-019>023-182000-
MARYLAND EASTERN SHORE

CITY           SKY/WX    TMP DP  RH WIND       PRES   REMARKS
OCEAN CITY     CLOUDY    82  79  90 S10G20    29.85F HX  92
SALISBURY      MOSUNNY   90  80  72 S13G21    29.82F HX 107
BAY BRIDGE AP* SUNNY     88  79  74 SE13      29.80F HX 102
CAMBRIDGE*     MOSUNNY   88  81  79 S10G17    29.81F HX 105
EASTON*        MOSUNNY   90  77  66 S10       29.84  HX 102

$$

MDZ017>025-182000-
SOUTHERN MARYLAND

CITY           SKY/WX    TMP DP  RH WIND       PRES   REMARKS
PATUXENT RIVER MOSUNNY   89  79  72 S10       29.81F HX 104
ST INIGOES     SUNNY     89  81  77 SE8       29.80F HX 108
LEONARDTOWN*   PTSUNNY   88  77  70 S6        29.83F HX 100

$$

MDZ003>005-182000-
NORTH CENTRAL MARYLAND

CITY           SKY/WX    TMP DP  RH WIND       PRES   REMARKS
FREDERICK*     PTSUNNY   91  72  52 SW13      29.80F HX  98
HAGERSTOWN APT LGT RAIN  83  75  77 W5        29.79F HX  90
WESTMINSTER*   MOSUNNY   97  73  46 SW12G18   29.79F HX 107

$$

MDZ501>502-182000-
WESTERN MARYLAND

CITY           SKY/WX    TMP DP  RH WIND       PRES   REMARKS
OAKLAND*       CLOUDY    66  66 100 W8        29.94S
CUMBERLAND*    CLOUDY    84  72  65 W5        29.87F

$$

VAZ025>031-182000-
SHENANDOAH VALLEY

CITY           SKY/WX    TMP DP  RH WIND       PRES   REMARKS
WINCHESTER*    CLOUDY    86  70  58 SW7       29.81F HX  90
FRONT ROYAL*   CLOUDY    86  75  70 CALM      29.81F HX  95
LURAY*         MOSUNNY   90  68  48 SW12G18   29.84S HX  93
NEW MARKET*    CLOUDY    87  68  52 SW9G16    29.82F HX  90
STAUNTON*      CLOUDY    85  71  63 SW6       29.88F HX  90
WAYNESBORO*    MOSUNNY   85  72  63 SW7       29.88F HX  91

$$

WVZ021-048>050-054>055-182000-
EASTERN WEST VIRGINIA PANHANDLE

CITY           SKY/WX    TMP DP  RH WIND       PRES   REMARKS
MARTINSBURG    LGT RAIN  79  73  82 S10G20    29.80S
PETERSBURG*    LGT RAIN  78  74  87 W6        29.86F

$$

VAZ036>039-050-182000-
CENTRAL FOOTHILLS

CITY           SKY/WX    TMP DP  RH WIND       PRES   REMARKS
CHARLOTTESVILL CLOUDY    88  77  69 NW8       29.82F THUNDER HX 100
CULPEPER*      MOSUNNY   94  73  50 W10       29.80F HX 103
ORANGE*        PTSUNNY   91  70  49 SW10G17   29.80F HX  97
GORDONSVILLE*  MOSUNNY   93  73  51 SW14G21   29.80F HX 102
WARRENTON*     PTSUNNY   94  69  43 SW9       29.79F HX  99

$$

VAZ055>057-182000-
NORTH AND CENTRAL PIEDMONT

CITY           SKY/WX    TMP DP  RH WIND       PRES   REMARKS
FREDERICKSBRG* MOSUNNY   92  76  58 S9G18     29.79F HX 104
STAFFORD*      MOSUNNY   92  75  57 S8        29.84F HX 102

$$

NCZ024-NYZ072-PAZ021-071-VAZ022-071-182000-
OTHER REGIONAL OBSERVATIONS

CITY           SKY/WX    TMP DP  RH WIND       PRES   REMARKS
NEW YORK CITY  CLOUDY    80  76  87 CALM      29.85F
PHILADELPHIA   PTSUNNY   86  76  71 SW5       29.79F HX  96
PITTSBURGH     MOSUNNY   83  67  58 W15       29.83S
ROANOKE        PTSUNNY   92  69  47 W15       29.89F HX  97
RICHMOND       MOSUNNY   91  76  61 S14       29.82F HX 103
RALEIGH        MOSUNNY   94  73  50 VRB7      29.87F HX 103

$$

ANZ530>537-182000-
MARINE OBSERVATIONS

STATION/POSITION TIME  TEMP    WIND        PRES
                       AIR SEA DIR/SP/G
                 (UTC) (F)     (DEG/KT/KT) (MB)
THOMAS PT LIGHT  1900   82 81  160/ 15/ 16   N/A
BALT KEY BRIDGE  1848   83     130/ 13/ 16 1008.2F
COVE POINT       1848   82     170/ 13/ 14 1010.1F
LEWISETTA        1848   89 83  210/ 10/ 13 1009.4F
SOLOMONS ISLAND  1842   87 81  190/  9/ 11   N/A
PINEY POINT      1848          210/  6/  7   N/A

$$





USA.gov is the U.S. government's official web portal to all federal, state and local government web resources and services.